Theta_e
305 304 303 304 304 303 304 303 303 303 304 306 307 307 308 309 310 310 311 312 311 310 315 325 326 322 320 319 318 317 317 317 315 314 315 314 314 316 317 318 320 320 321 321 321 322 321 321 323 322 323 325 323 324 325 322 324 326 323 322 331 338 332 319 315 322 326 326 328 331 329 325 324 326 327 327 329 326 325 331 331 322 318 323 321 317 334
305 304 304 303 303 304 304 303 303 303 304 306 308 308 308 308 308 310 312 313 312 311 316 324 326 324 322 321 320 319 318 318 317 317 317 316 316 316 316 318 321 323 324 321 321 321 320 321 323 323 324 327 325 324 324 324 324 324 324 327 327 326 326 322 315 316 319 321 323 323 324 325 326 331 330 326 331 332 334 340 332 320 322 325 320 319 336
304 304 304 304 303 304 303 303 303 303 303 305 307 308 308 310 311 312 313 315 314 314 316 318 321 323 321 320 320 319 319 320 320 320 320 319 319 318 318 320 321 324 324 322 322 322 321 321 322 324 328 332 332 327 323 323 324 324 331 335 326 326 333 325 315 315 316 317 319 321 324 328 329 333 328 326 332 327 327 330 320 317 325 326 324 327 338
304 304 305 304 303 303 303 303 303 303 303 304 306 308 308 311 317 318 315 314 315 316 316 312 314 317 317 319 321 318 319 321 320 321 322 321 320 318 318 319 320 324 324 323 324 323 324 325 325 329 332 335 339 335 328 324 322 330 346 341 328 336 341 326 319 320 318 320 332 339 336 327 321 325 325 326 329 326 332 329 319 323 330 325 337 345 333
304 304 305 304 304 304 303 303 303 303 303 304 306 308 308 311 320 319 315 316 317 316 314 312 312 314 315 320 322 318 318 319 319 322 322 321 321 319 319 319 320 324 327 326 326 327 330 329 327 332 338 340 339 335 332 328 326 341 352 340 333 335 330 325 328 326 321 329 341 343 334 323 319 323 324 324 328 326 328 325 324 334 327 319 347 364 331
304 305 305 304 304 305 304 303 303 304 303 304 307 309 310 315 319 316 314 317 318 316 316 313 313 314 316 320 320 317 318 319 320 322 321 319 319 320 322 321 320 322 326 332 335 334 332 332 333 342 346 343 340 337 336 333 336 347 344 336 338 332 321 324 327 324 326 330 331 333 331 327 326 326 323 324 328 325 322 324 332 339 323 318 348 364 339
304 304 304 304 304 304 304 303 304 304 303 304 308 310 311 314 315 314 314 316 316 315 315 315 315 316 318 323 323 319 320 321 319 318 318 318 318 320 324 326 324 322 329 341 348 341 333 331 340 349 345 339 339 340 339 335 336 340 335 337 340 327 325 332 325 320 325 326 325 328 327 325 324 325 326 325 326 326 324 328 336 337 328 331 351 358 349
304 304 303 304 304 304 304 303 304 304 303 304 307 309 309 310 310 312 313 314 315 315 315 315 317 317 319 325 326 320 320 322 317 315 316 316 317 321 326 329 328 326 331 340 344 342 339 337 339 341 338 337 342 343 341 337 334 333 334 339 335 324 333 346 330 318 321 323 327 327 324 326 323 322 329 326 323 326 323 325 335 333 329 337 346 347 348
304 304 303 304 304 304 304 304 304 304 304 304 306 306 307 307 308 309 311 314 316 316 315 315 316 319 321 323 322 318 318 320 316 315 317 317 318 323 326 328 329 329 333 338 339 337 338 338 335 332 331 334 338 340 340 336 333 336 339 339 335 328 334 342 329 317 317 321 324 326 327 327 321 319 325 324 322 327 326 328 336 333 329 337 337 335 340
304 303 304 304 304 304 304 304 305 305 304 304 305 305 305 306 307 308 310 313 316 315 315 314 316 321 321 317 314 314 316 316 315 316 320 319 318 321 323 325 331 338 338 335 333 329 329 330 329 327 328 330 330 332 335 334 332 337 341 340 342 338 333 333 327 317 317 322 323 326 325 320 320 327 333 330 332 337 337 339 343 342 341 341 333 330 341
304 303 304 304 304 304 304 304 305 305 304 304 304 304 304 305 306 307 310 313 314 313 314 314 315 317 315 311 311 312 313 315 314 316 319 318 317 320 322 323 331 344 342 329 323 322 322 324 325 326 326 327 329 331 333 333 333 335 338 339 347 349 338 335 330 318 317 325 326 325 320 317 328 347 346 338 339 340 340 340 341 345 351 351 341 338 348
304 303 303 303 304 304 305 304 305 305 305 304 304 304 304 304 305 307 311 314 313 312 312 313 312 312 311 311 310 311 313 314 314 314 315 317 317 318 322 323 326 337 335 322 317 320 323 327 333 335 333 332 333 334 332 333 335 338 337 334 341 349 341 335 334 326 324 328 324 318 318 324 341 351 342 336 337 339 342 341 341 345 350 357 356 349 350
304 304 303 303 303 304 304 305 305 305 305 305 304 304 304 304 305 306 309 313 313 312 312 312 311 311 311 311 310 311 313 312 312 313 315 317 319 319 323 324 322 324 322 317 318 323 331 344 351 347 345 344 342 338 336 334 335 338 338 334 338 350 349 341 337 332 327 324 317 315 322 336 348 344 340 339 339 340 342 339 339 343 344 352 358 353 349
304 304 304 304 303 303 303 304 305 305 305 305 305 304 304 304 305 305 308 312 313 312 312 312 312 311 311 311 311 312 312 310 310 312 313 316 319 321 322 322 320 319 317 318 325 332 339 353 357 348 344 343 340 341 344 339 335 337 337 334 337 348 358 350 333 329 333 328 321 322 326 332 342 344 342 340 337 339 343 337 335 340 340 344 351 349 347
303 303 304 304 304 304 303 303 304 305 305 305 305 304 304 304 304 305 307 310 312 312 312 312 312 313 312 311 311 312 312 311 310 310 313 317 320 320 319 319 318 316 318 323 333 341 343 344 342 338 335 332 331 339 347 340 334 336 334 333 333 336 350 352 334 331 341 335 323 324 325 326 340 350 344 337 333 337 345 342 337 339 340 342 347 344 344
303 304 304 304 304 305 304 304 304 304 305 305 305 304 303 303 304 306 307 309 311 313 312 311 311 311 311 311 311 311 312 312 310 311 315 318 317 315 316 316 315 316 325 336 340 343 343 340 338 338 337 335 334 339 344 338 334 337 336 336 338 338 345 349 337 335 344 338 328 328 328 330 342 347 341 336 334 336 341 341 338 340 341 343 348 347 344
303 304 303 303 304 304 305 305 305 305 305 305 305 304 304 303 304 306 306 307 310 312 311 309 310 311 311 312 312 311 311 313 313 314 316 315 314 315 314 315 316 318 331 346 347 339 337 338 338 338 341 342 338 337 340 336 333 336 339 341 348 351 350 345 334 333 342 341 333 330 331 335 341 341 336 333 335 340 337 332 333 341 343 342 346 349 349
304 304 303 304 304 304 305 305 305 305 305 305 305 304 303 303 304 305 306 306 309 310 310 309 310 310 311 312 312 311 311 311 313 316 315 314 318 319 312 312 319 322 329 344 346 338 335 335 331 331 336 340 339 338 341 339 337 339 341 344 349 354 355 351 341 335 338 340 333 327 332 340 339 336 335 335 340 346 339 331 335 344 344 340 340 340 341
304 303 304 304 304 304 304 305 305 305 305 305 304 304 303 303 304 305 306 307 309 310 310 309 309 309 309 310 310 310 310 310 312 315 317 318 317 315 312 317 324 324 327 338 342 337 338 342 337 333 333 335 340 343 341 342 347 346 342 341 343 346 350 352 348 338 336 340 337 329 333 340 336 333 338 342 346 347 339 336 342 343 340 340 339 337 338
304 303 303 304 304 304 304 305 305 305 305 305 304 304 304 303 303 305 306 307 308 309 309 308 308 309 309 308 309 310 310 310 310 312 316 319 315 311 317 328 330 327 330 339 341 337 337 341 342 337 334 336 341 341 338 340 346 344 342 345 346 345 344 343 342 342 342 346 344 337 337 339 335 340 350 351 346 344 341 340 344 341 339 340 339 339 341
304 304 304 304 304 304 304 305 305 305 305 305 304 304 304 303 303 304 305 306 307 308 308 308 308 309 309 309 309 309 309 309 310 309 311 313 312 311 315 321 324 328 332 335 338 336 332 335 338 336 336 342 342 337 336 339 337 338 346 349 345 349 350 342 340 347 351 347 345 345 347 343 335 339 348 344 340 343 341 338 338 337 336 337 338 340 341
303 304 304 304 304 304 304 304 305 305 305 305 304 304 304 304 303 304 304 306 307 308 308 308 308 308 308 308 308 308 308 308 308 308 308 309 311 312 313 316 321 330 332 330 333 334 330 330 336 336 337 341 339 336 340 339 335 340 349 345 337 344 352 345 340 345 349 346 346 350 352 344 334 334 338 335 335 338 336 332 335 335 334 333 334 337 337
303 304 304 304 304 304 305 305 304 305 305 305 304 304 304 303 303 303 304 306 307 308 307 308 308 308 308 309 308 309 310 309 308 308 308 309 311 312 315 319 322 326 329 328 330 332 329 327 332 336 338 339 338 340 344 343 342 348 350 343 338 342 347 345 342 341 340 340 342 345 344 337 331 331 332 331 332 333 331 331 333 333 331 331 331 332 332
303 303 304 304 304 304 304 304 304 305 305 304 304 304 304 304 303 303 305 306 307 308 308 308 308 309 309 309 308 309 310 311 311 311 309 308 311 313 316 319 319 320 324 325 326 328 327 326 330 334 338 340 340 341 343 342 345 349 346 342 343 343 345 348 345 342 342 342 342 342 339 335 331 331 329 329 330 330 331 333 334 333 332 331 330 330 330
303 303 304 304 304 304 304 304 304 305 304 304 305 304 304 304 303 303 304 305 306 308 309 309 308 308 308 308 308 309 310 310 311 312 311 309 310 311 313 314 313 315 320 322 322 324 326 330 333 333 334 339 341 340 339 337 339 343 344 343 343 340 342 345 344 345 346 344 341 341 338 334 333 331 327 327 328 327 330 332 333 334 333 330 330 330 330
303 304 304 304 304 304 304 304 304 304 304 304 304 304 304 304 303 302 303 304 306 307 309 309 308 307 308 309 308 308 309 310 311 312 312 312 311 310 310 311 311 313 318 321 321 323 326 331 333 333 333 336 336 339 342 338 336 342 345 341 340 340 341 343 345 347 347 342 341 342 337 331 331 331 329 328 327 327 329 329 329 332 332 330 330 330 328
303 303 303 304 304 304 304 304 304 304 304 304 304 304 303 303 302 302 302 304 306 307 308 309 309 307 308 308 308 308 310 311 312 313 312 313 312 310 309 310 312 314 318 319 320 324 327 328 329 333 336 335 330 333 339 336 336 344 343 335 335 342 346 344 342 344 344 342 342 342 337 331 330 329 328 327 326 326 329 329 328 331 333 332 331 329 328
303 303 303 303 304 304 304 304 304 304 304 304 303 303 302 301 301 301 300 302 305 307 308 309 308 308 309 309 308 308 310 310 312 313 311 310 310 309 309 311 311 313 316 316 318 323 327 326 325 329 333 333 330 332 336 337 340 342 337 331 335 342 345 345 345 344 343 342 341 339 335 330 328 327 327 327 326 325 326 326 326 328 329 328 327 327 327
303 303 304 303 304 304 303 303 303 304 304 304 303 302 301 303 303 303 302 303 304 306 308 308 308 309 310 310 308 308 309 310 311 312 309 307 307 309 310 311 312 314 316 317 317 321 326 327 325 325 327 329 330 331 335 340 340 336 329 329 334 337 339 341 343 340 339 339 337 333 329 325 324 325 326 326 325 324 324 324 323 323 323 324 324 324 325
303 303 303 304 303 303 303 303 303 304 303 303 302 302 304 307 306 305 305 305 304 305 307 308 309 309 308 309 309 308 309 310 310 308 307 307 309 311 310 311 314 318 319 317 317 321 325 325 325 327 325 323 326 328 332 336 335 328 322 323 326 330 334 336 334 332 331 331 329 325 325 325 325 324 324 325 325 325 325 326 325 324 323 323 323 324 323
303 303 303 303 303 303 303 303 303 303 303 302 302 303 306 308 307 306 306 305 303 304 306 308 309 309 309 311 311 311 312 312 310 308 309 308 309 311 310 310 315 319 320 319 320 322 324 324 326 329 326 325 330 332 331 333 332 326 322 321 321 322 326 328 326 326 327 327 326 323 323 325 324 323 324 325 324 323 324 327 328 327 325 323 321 322 321
303 303 303 303 303 303 303 303 303 303 303 302 302 302 303 305 306 305 305 304 302 304 307 309 309 310 313 314 314 313 314 313 310 310 312 313 312 312 311 312 316 319 321 322 321 321 324 327 328 326 324 329 337 335 326 324 325 322 320 321 321 320 321 322 322 323 323 326 329 329 326 325 324 324 324 323 322 321 322 323 323 321 321 320 318 319 320
303 303 303 303 303 303 303 303 303 303 303 302 301 300 300 302 303 304 303 303 302 304 307 309 309 311 313 315 315 314 313 313 312 312 314 317 316 314 314 316 317 316 317 320 320 322 326 327 324 321 324 329 334 332 325 322 322 321 320 321 321 321 321 320 319 319 320 321 326 328 327 326 324 321 319 319 319 320 320 320 319 317 317 319 320 320 320
303 303 303 303 303 302 302 303 303 303 303 302 301 301 300 302 303 303 303 303 303 305 307 308 310 313 312 313 318 319 314 313 314 313 315 319 318 314 315 318 316 313 314 317 319 323 326 325 320 322 326 326 326 328 325 322 320 319 319 320 321 321 321 320 320 319 318 319 320 321 322 321 320 318 318 319 319 318 318 318 319 318 318 319 321 321 322
303 302 302 302 302 302 302 303 303 303 303 302 302 302 303 304 305 305 305 305 305 308 308 308 309 313 314 317 323 324 314 312 316 317 316 319 317 316 319 319 314 312 314 315 316 318 322 323 324 324 325 325 325 325 323 321 319 318 317 318 319 320 319 321 321 320 318 318 318 318 318 318 318 319 319 319 319 319 319 319 319 319 320 320 321 322 323
302 302 302 302 302 302 302 303 303 303 303 303 304 305 305 306 307 306 305 305 305 307 309 309 310 313 316 318 322 320 312 314 320 318 316 318 317 317 320 320 317 317 316 315 318 320 320 323 325 324 323 324 323 322 321 320 319 319 318 317 318 318 319 320 320 318 317 316 316 317 317 317 318 319 319 319 320 320 319 319 319 320 321 321 322 323 324
302 302 302 302 302 303 304 304 304 304 304 305 306 306 306 306 307 306 305 305 306 306 307 308 310 312 313 315 319 318 315 317 320 317 315 319 321 319 318 321 324 324 319 318 322 322 320 321 324 323 322 323 321 320 320 320 319 319 319 319 318 318 319 320 319 317 318 319 318 317 318 318 318 318 319 318 320 319 319 320 320 320 320 321 322 323 322
302 302 302 303 304 305 306 306 305 305 305 305 306 308 307 307 307 308 308 308 308 308 307 308 310 310 310 313 317 317 314 318 323 322 318 320 321 319 318 322 326 326 322 320 321 323 323 323 324 323 323 322 321 321 321 319 319 319 318 318 318 318 318 318 317 318 322 323 320 318 319 319 319 319 319 319 320 320 320 320 321 321 322 323 323 322 321
302 302 303 304 305 305 306 306 304 304 305 305 306 309 310 308 309 311 310 309 310 310 309 310 310 309 309 312 317 316 314 319 326 327 325 322 320 319 319 321 322 324 322 320 320 324 326 325 324 324 324 323 322 323 322 321 320 319 318 318 318 318 318 318 318 318 320 321 319 318 319 319 318 318 319 320 321 321 320 321 321 320 321 323 324 323 322
303 303 304 305 305 305 304 304 304 304 306 307 307 308 308 308 310 312 311 311 313 313 312 313 313 310 309 311 315 317 318 319 321 324 326 323 320 320 322 322 324 326 325 321 322 325 326 325 325 325 325 324 323 323 323 321 320 320 319 319 319 318 318 318 318 317 318 319 319 320 320 319 319 319 318 319 320 320 320 321 320 318 318 321 322 322 321
303 304 304 304 304 304 303 304 305 306 308 309 308 308 309 310 311 312 311 313 315 314 313 314 316 315 312 311 313 317 321 320 318 323 327 325 322 323 323 323 327 329 324 321 325 328 326 325 326 326 324 323 323 322 322 322 321 320 320 319 319 319 319 319 318 317 317 319 320 320 318 317 318 318 317 318 320 321 320 321 320 318 317 318 319 319 318
303 303 303 303 304 304 305 306 308 309 310 309 309 309 310 310 310 310 312 314 315 313 312 313 316 318 318 315 314 318 320 318 319 325 327 322 321 325 326 326 327 325 320 320 328 331 327 326 327 326 323 322 322 322 322 321 321 321 321 321 320 319 319 319 319 317 316 317 320 319 316 314 315 315 315 316 318 319 319 319 318 316 316 316 317 317 318
303 303 303 304 305 306 307 309 310 311 311 310 308 308 309 311 311 312 312 312 315 316 313 312 314 319 318 314 315 319 318 315 318 325 326 321 318 322 327 328 325 320 318 323 329 329 327 327 327 324 322 322 321 321 321 320 321 321 321 320 318 317 316 316 317 317 315 315 317 317 315 314 314 315 315 315 316 316 316 315 316 317 317 317 317 317 317
303 303 304 305 307 308 309 310 310 309 309 309 308 308 310 312 313 313 311 311 315 318 315 314 316 319 318 316 318 320 320 320 322 324 324 323 323 322 323 324 322 320 323 328 328 326 325 326 324 322 322 321 320 320 321 321 321 321 320 319 317 316 316 317 317 317 317 316 315 315 315 315 315 315 315 314 315 316 315 315 317 318 318 317 316 316 316
305 305 306 307 308 308 308 309 309 309 309 311 311 309 308 309 312 314 313 313 315 317 317 317 320 321 319 318 319 318 320 325 325 320 319 323 324 321 319 321 322 323 324 326 326 326 326 324 322 322 322 321 321 321 321 321 321 320 320 320 319 319 320 320 319 319 319 318 316 315 315 315 314 314 314 314 315 315 315 316 318 319 318 316 316 315 316
305 306 306 307 308 308 307 308 309 309 310 310 310 308 308 310 312 313 312 313 316 318 318 318 321 320 319 320 321 321 323 326 324 319 320 324 322 317 316 320 322 323 324 325 326 327 325 323 322 322 321 321 321 321 321 321 320 320 320 321 321 321 321 321 321 320 319 317 315 315 315 315 314 314 314 314 315 316 316 316 318 318 317 316 316 315 316
306 305 305 306 308 309 308 308 308 308 309 310 310 310 312 314 312 310 311 314 317 317 317 320 323 322 320 319 320 320 322 324 323 320 321 323 320 317 319 322 322 323 325 326 326 325 324 322 321 322 321 321 322 322 321 321 321 322 321 322 322 322 321 321 322 321 318 317 316 315 315 315 314 314 315 315 315 316 316 316 317 317 317 316 316 316 317
307 306 305 307 308 308 307 308 308 308 309 311 311 311 314 315 314 313 313 315 316 316 317 321 325 323 319 320 322 321 320 321 322 320 320 322 320 318 320 322 322 323 324 325 324 324 323 322 321 321 322 322 322 322 322 322 322 322 322 322 322 322 322 322 322 320 318 318 318 317 315 315 315 315 314 315 316 316 316 316 316 317 317 317 317 317 317
305 305 305 307 308 308 307 308 310 310 311 311 311 312 314 314 314 314 314 314 316 318 318 321 324 322 317 317 322 322 318 317 317 318 321 323 320 317 319 323 325 324 323 324 324 323 323 322 322 322 322 322 322 323 323 322 321 322 322 322 320 320 320 320 320 319 318 318 318 317 316 317 316 315 314 314 315 316 316 316 316 317 317 317 317 317 317
304 304 305 307 308 309 309 309 310 312 313 313 313 314 315 314 314 314 314 315 319 324 324 322 322 321 318 317 318 317 315 316 320 322 322 320 319 320 322 324 325 324 324 324 324 323 323 322 322 323 323 323 323 322 322 322 322 322 321 319 317 317 317 317 318 317 318 318 318 318 318 318 316 315 315 316 316 316 316 316 316 317 317 317 318 318 318
304 305 308 309 309 308 309 310 311 311 311 312 313 315 315 315 315 314 313 314 319 323 322 318 317 319 320 318 316 313 314 317 321 322 320 319 320 323 325 324 323 323 323 323 323 324 323 322 323 323 324 324 323 323 322 322 322 321 318 316 316 316 317 317 317 317 317 317 317 318 318 317 317 317 317 316 316 316 316 316 317 317 318 318 318 319 319
305 306 310 312 311 309 309 311 313 313 312 312 314 314 314 314 314 314 313 315 318 319 318 317 319 320 318 314 313 314 317 319 320 321 321 320 320 322 323 323 322 322 322 322 323 324 324 323 323 323 323 323 323 323 322 322 322 320 317 316 317 317 316 316 316 317 316 316 316 317 318 317 317 316 315 315 315 318 319 318 317 317 318 318 318 320 321
Wind_Speed
21 24 25 25 27 29 32 34 36 37 37 35 32 19 5 1 6 11 8 7 6 3 1 3 3 2 4 4 4 3 3 3 2 3 4 3 4 4 4 6 7 6 4 6 6 2 3 5 4 5 7 9 12 14 15 17 14 9 8 8 7 4 4 5 6 6 6 8 7 5 5 6 6 7 6 7 6 6 6 5 5 5 3 3 3 3 6
21 23 24 25 26 28 30 32 34 35 33 33 28 13 3 3 6 9 10 5 5 4 3 4 3 3 4 5 5 5 4 5 6 6 6 4 4 4 4 5 6 3 3 8 7 3 2 5 5 7 8 8 12 16 19 19 14 9 8 7 7 5 4 5 5 5 6 7 6 5 3 3 4 4 5 7 8 7 5 3 4 4 5 6 5 4 6
21 22 23 24 25 26 28 30 32 33 31 31 24 8 3 5 3 5 8 5 3 3 2 1 2 3 3 3 5 5 4 5 6 7 7 7 6 6 6 6 5 3 3 8 9 4 3 5 5 7 8 7 8 10 16 19 14 12 14 12 10 6 5 6 7 8 8 7 6 6 3 3 3 3 7 9 10 11 7 4 5 4 4 5 6 5 6
21 20 21 22 23 24 26 29 31 32 31 30 23 8 3 4 2 3 5 3 1 2 1 3 3 3 4 4 4 3 3 4 5 6 7 7 8 7 7 7 6 6 5 6 8 6 5 5 6 8 8 6 5 7 10 15 16 18 19 15 9 4 4 8 10 10 10 8 8 7 4 5 5 6 8 10 11 13 8 5 5 6 4 4 6 6 5
21 20 20 22 22 23 25 27 30 31 31 30 20 6 2 1 3 2 4 3 3 3 2 4 4 3 3 3 3 3 4 4 4 4 4 5 7 6 6 8 7 7 6 4 5 5 5 6 9 10 7 4 6 10 9 8 16 18 14 11 7 4 4 9 12 14 13 12 11 7 4 6 9 9 10 10 11 12 10 7 7 7 8 6 9 6 8
21 20 20 21 22 22 23 25 27 29 31 28 14 3 2 2 3 2 4 3 2 3 4 6 6 6 4 3 3 4 5 4 3 3 4 7 7 5 4 7 11 11 9 6 4 1 5 8 9 7 4 4 7 10 8 2 4 7 6 7 5 4 6 8 11 14 15 14 14 11 5 5 7 8 11 13 12 13 13 11 10 11 9 9 8 9 11
20 19 19 20 20 20 21 23 25 28 30 23 9 2 2 2 3 4 5 3 3 5 8 8 8 7 6 3 4 4 4 4 4 3 4 6 6 5 4 7 10 9 10 7 3 3 2 5 7 4 4 5 4 5 6 4 5 4 3 7 5 4 5 7 10 13 14 13 15 15 11 9 8 7 10 13 14 16 17 13 11 13 11 9 10 13 12
19 19 19 19 19 19 20 21 23 26 28 20 7 2 3 2 3 4 4 4 5 6 6 5 5 6 5 3 3 4 4 4 6 6 4 6 7 6 7 9 10 8 7 7 6 7 7 4 6 5 6 6 3 1 3 4 7 8 3 3 4 6 6 5 8 8 10 11 13 14 12 13 12 11 12 11 11 12 13 10 9 9 8 5 8 10 10
19 19 18 18 17 18 18 19 20 22 23 16 5 3 6 5 7 6 5 4 5 4 3 3 3 4 3 1 3 6 5 5 10 9 5 6 7 6 9 11 9 6 6 7 8 8 8 8 10 9 8 7 5 3 4 3 7 7 4 3 3 5 4 2 7 5 7 9 12 13 9 8 10 12 14 11 8 7 7 6 6 7 7 6 7 6 9
19 19 17 16 16 17 17 17 18 18 18 13 5 5 9 9 8 6 4 4 4 4 3 3 3 3 2 4 6 6 8 10 10 7 4 6 8 8 10 10 5 2 3 3 2 1 3 7 10 9 9 10 9 8 8 7 5 4 3 3 2 4 4 3 6 6 7 7 10 9 6 4 6 9 10 9 7 7 5 3 1 4 6 7 5 7 7
19 18 17 16 16 17 15 14 16 16 14 12 7 6 9 9 6 4 3 4 4 3 3 2 2 2 5 9 9 9 11 11 8 4 4 7 10 11 10 8 4 2 4 3 5 8 9 9 10 8 8 11 11 10 10 9 7 6 4 3 3 3 6 5 5 6 6 6 8 8 5 6 7 6 5 6 7 10 10 4 1 1 4 5 5 6 3
19 18 17 16 15 16 14 14 15 14 11 11 9 8 9 9 7 4 3 4 4 3 3 3 3 5 9 11 10 10 11 11 10 7 7 8 10 12 9 7 5 3 5 8 10 10 8 5 4 6 7 8 9 8 8 8 8 6 5 4 4 3 5 4 3 4 4 4 8 8 6 7 4 5 2 5 11 15 13 7 4 4 3 2 1 4 5
19 18 18 16 15 15 14 14 14 13 11 11 11 9 10 10 7 3 2 4 5 3 3 5 7 8 10 10 10 11 11 11 11 10 9 8 9 9 6 4 5 7 10 13 11 6 3 1 2 5 6 4 3 5 6 7 8 8 4 3 4 4 4 2 1 2 3 4 5 7 6 3 3 5 4 4 7 11 12 9 8 8 7 3 2 3 5
20 19 18 17 16 15 14 14 14 13 11 11 12 11 11 9 6 4 3 4 5 4 4 6 7 7 7 8 9 10 10 10 9 7 6 6 6 7 7 5 7 10 10 9 6 2 1 1 2 2 4 4 3 3 5 5 5 7 5 3 2 3 4 2 2 1 4 5 2 3 3 2 3 3 2 2 2 2 7 6 3 4 5 3 2 4 4
20 19 18 17 16 15 15 14 14 14 11 11 12 12 12 11 8 6 4 3 5 6 4 4 3 4 7 10 9 7 7 7 6 6 6 5 5 6 7 7 10 12 10 5 1 1 1 1 2 2 1 3 2 2 3 2 4 6 4 3 3 1 3 4 3 1 2 5 4 2 3 1 4 5 4 3 6 6 3 6 1 4 7 6 2 7 8
19 18 18 18 16 15 15 15 15 14 12 11 12 13 13 12 8 8 6 3 4 5 3 2 4 6 8 8 7 6 5 4 6 6 5 5 6 8 9 9 10 11 7 1 2 2 2 2 2 3 2 3 3 2 1 0 3 6 5 4 7 7 3 3 5 3 2 5 5 3 2 2 4 7 10 8 8 8 1 5 1 7 10 8 5 7 6
19 19 19 18 17 16 15 15 14 13 12 11 11 13 15 13 9 8 6 3 3 5 6 7 7 5 4 4 4 4 3 3 4 4 3 6 8 10 10 11 10 8 6 4 2 2 2 1 1 2 2 3 2 2 2 1 1 4 7 7 8 7 5 4 5 4 4 5 3 1 2 1 4 8 11 11 8 4 6 5 2 7 10 7 7 9 7
19 18 18 18 17 17 15 14 13 12 11 11 11 13 15 13 9 7 5 3 4 5 5 6 6 3 3 4 5 4 3 3 3 2 4 5 5 6 9 9 7 6 5 4 2 3 2 1 2 2 2 3 1 3 3 2 2 1 4 4 4 4 4 3 3 4 5 5 3 1 1 2 5 9 11 10 6 7 8 4 5 5 8 5 8 11 8
19 18 18 17 17 16 15 13 12 11 11 11 11 12 14 13 10 8 7 4 4 5 4 6 8 7 5 5 6 5 4 4 3 2 4 3 3 8 9 5 2 4 4 3 3 3 2 2 2 1 1 2 1 1 2 2 3 2 0 1 2 2 3 3 2 3 3 4 3 3 1 2 5 10 10 6 5 5 4 3 2 4 5 5 9 9 9
18 18 17 16 15 15 14 13 12 12 11 10 10 11 14 14 11 8 7 5 4 7 8 9 11 12 9 6 7 6 4 4 3 2 2 3 5 9 7 2 2 4 4 3 3 2 1 2 3 2 1 3 2 1 1 1 2 3 2 1 0 1 1 2 2 1 2 4 4 3 1 4 9 10 7 5 5 4 4 3 3 4 5 7 9 8 7
17 17 16 15 14 14 14 13 12 11 10 10 10 10 13 14 11 9 10 9 5 5 6 7 10 12 12 12 13 12 9 8 8 5 3 4 4 4 3 2 3 2 2 2 1 1 2 2 2 2 2 3 2 1 0 1 2 3 4 3 2 1 2 1 0 1 2 4 2 2 3 7 9 5 4 4 4 4 5 6 5 4 5 6 7 7 7
17 16 15 15 14 13 13 12 12 11 11 10 10 9 11 14 13 13 14 12 9 8 11 16 19 22 26 30 30 26 24 24 22 14 6 4 4 3 2 4 3 2 1 1 1 0 2 2 1 2 3 3 2 2 0 2 2 1 1 3 2 1 3 5 3 1 2 4 3 3 3 6 5 5 8 7 7 7 5 7 7 5 4 4 6 7 7
16 16 15 15 14 13 13 12 12 11 11 10 9 10 12 15 16 15 14 11 9 10 16 20 21 21 23 27 27 25 25 28 30 26 17 8 4 4 4 3 3 1 0 0 2 2 1 1 1 2 3 3 2 3 2 1 0 1 1 2 2 2 4 6 4 2 4 5 3 2 2 4 3 7 8 8 9 7 5 7 7 5 4 4 5 7 7
15 16 15 13 13 13 12 12 12 11 11 10 10 11 13 16 15 13 11 7 4 4 8 9 8 8 12 16 19 20 20 21 24 27 26 17 6 3 2 2 2 2 1 3 3 2 2 1 1 1 3 2 1 2 2 2 2 1 1 2 1 2 3 5 5 5 5 3 3 4 4 4 4 7 9 9 9 7 6 7 6 4 4 4 4 5 7
13 14 13 12 13 13 12 12 11 11 11 10 10 11 12 14 13 9 7 5 3 3 5 4 5 11 15 18 20 21 20 17 15 15 22 24 15 7 5 4 4 3 2 3 2 2 2 0 1 2 4 3 1 1 1 2 2 1 2 2 1 2 3 5 5 4 5 5 4 0 5 6 6 6 7 8 8 8 7 6 6 6 6 5 5 7 8
13 13 13 12 12 12 12 11 11 11 11 10 11 11 13 15 15 11 8 6 4 4 5 5 7 11 14 17 21 23 20 16 12 9 18 25 24 19 11 6 5 4 1 0 0 2 2 1 1 1 2 2 2 2 2 2 2 2 1 1 2 1 2 4 6 5 6 7 6 4 5 7 9 7 6 5 6 8 9 7 7 8 8 8 9 8 7
12 12 12 12 11 11 11 10 10 10 11 11 11 12 15 18 19 15 12 8 3 3 4 4 6 11 15 18 25 26 19 13 11 9 14 21 23 19 11 4 4 4 3 1 1 2 2 1 0 2 2 2 3 3 2 1 0 1 2 4 3 1 2 2 6 7 5 3 4 5 6 5 4 4 4 4 6 9 10 10 10 9 7 7 7 7 7
12 11 10 10 10 10 10 10 9 10 10 11 13 15 19 21 21 19 18 14 8 3 4 4 6 12 13 14 20 22 18 15 14 12 15 18 18 15 9 5 4 3 1 1 1 1 3 2 2 2 3 1 2 3 2 2 2 2 3 5 3 1 2 3 6 7 4 3 4 6 7 6 2 2 4 4 6 10 11 10 10 9 7 6 7 7 8
11 10 10 10 10 10 10 9 9 9 10 11 13 15 16 15 13 13 14 13 9 6 4 5 6 6 7 11 17 18 16 14 12 13 14 12 11 9 7 5 5 3 1 1 0 1 2 3 2 2 3 3 2 2 2 4 4 3 6 6 5 3 3 6 9 8 6 3 4 6 9 8 5 5 6 5 5 9 10 9 10 10 8 8 8 7 7
10 10 10 10 9 9 9 9 8 8 9 10 10 9 6 4 1 7 9 2 3 3 3 4 4 4 5 8 11 12 12 10 9 11 11 8 6 6 5 5 4 2 2 1 1 2 1 2 2 3 3 3 4 2 2 3 2 3 7 8 7 6 6 6 7 9 8 5 4 7 9 8 6 7 8 7 6 7 9 9 9 9 8 7 7 6 5
10 10 9 9 9 9 9 9 8 8 9 8 4 1 2 1 4 11 9 5 12 6 1 3 4 4 5 5 5 8 10 7 5 6 6 5 5 5 5 5 3 2 2 1 1 1 1 2 2 3 3 1 2 3 3 3 3 3 8 9 8 7 7 7 6 8 8 6 7 11 11 7 5 7 9 9 7 6 8 7 7 8 8 7 7 6 5
9 9 9 9 9 9 9 9 8 8 9 9 7 7 9 9 5 6 6 14 14 4 1 3 3 2 3 3 5 7 8 5 4 2 2 4 4 3 3 4 2 2 3 2 0 1 2 2 2 2 3 1 3 4 3 4 4 3 5 7 7 8 9 9 8 8 6 4 6 10 11 10 9 8 7 6 6 6 7 6 5 7 8 7 7 8 8
8 8 8 9 9 9 9 9 8 9 11 12 14 19 21 19 14 11 13 15 9 3 2 2 3 3 3 4 5 5 4 3 2 1 1 3 2 2 2 2 2 1 2 2 1 2 2 2 1 2 3 2 4 4 3 5 5 4 4 5 6 6 9 11 10 10 10 8 7 9 8 6 5 4 4 6 7 8 8 7 5 5 7 8 8 8 8
7 8 8 9 9 9 10 10 10 11 11 11 13 17 17 14 12 12 11 8 4 2 3 1 1 3 3 3 4 3 2 3 3 3 2 3 2 3 2 1 1 1 2 2 1 1 2 2 1 1 3 4 4 4 4 6 7 6 5 6 5 5 8 11 10 10 9 8 8 8 7 6 5 4 6 8 8 8 8 8 8 8 8 8 7 6 6
7 8 8 9 9 10 12 11 10 9 7 7 10 10 6 4 8 9 6 6 3 0 2 2 1 3 3 3 3 4 2 1 2 4 3 2 2 2 2 1 1 1 2 1 1 1 2 2 1 3 4 4 4 5 4 5 7 7 7 8 8 6 7 7 7 7 6 6 7 6 5 6 7 7 7 7 6 7 8 8 8 8 8 7 6 5 5
7 7 8 10 10 11 11 9 7 6 4 5 8 8 6 7 10 8 5 8 5 2 2 1 1 2 2 2 3 4 4 3 1 2 2 1 1 1 2 3 1 2 1 2 2 3 4 3 2 4 4 4 5 4 4 4 6 8 8 9 8 6 6 5 3 3 5 7 9 8 7 9 9 6 5 6 6 6 7 8 8 8 7 7 7 6 5
7 8 9 10 9 7 5 4 5 4 6 10 13 12 9 7 7 5 4 6 6 5 2 2 2 3 2 3 3 3 3 2 1 0 1 2 2 1 2 2 1 2 2 4 4 4 4 4 4 6 6 5 4 4 4 5 6 6 6 6 6 5 6 5 2 2 4 8 10 9 7 8 8 6 6 7 7 7 8 7 6 6 5 5 5 5 5
7 8 8 7 4 2 1 2 3 8 13 14 10 7 4 1 1 1 2 2 3 4 2 1 3 3 2 3 4 3 2 2 1 1 1 1 1 0 1 1 1 1 3 3 2 3 3 4 4 6 5 4 4 5 5 5 5 5 5 5 5 5 5 6 6 7 8 8 9 9 8 9 9 8 7 7 7 7 6 5 5 4 4 4 4 4 5
7 7 5 3 2 2 3 6 10 13 12 7 2 1 1 1 1 1 1 1 2 2 2 2 2 2 3 4 5 4 2 1 2 3 1 1 0 0 0 0 0 1 3 3 1 1 3 3 3 3 4 3 4 4 5 4 4 5 5 6 6 6 6 6 8 9 8 6 5 6 6 7 7 7 6 6 6 6 5 5 6 5 4 5 5 5 4
5 5 3 1 2 6 11 15 15 10 5 1 1 0 0 1 1 1 1 1 1 2 3 3 2 3 5 5 4 4 2 0 2 2 1 1 0 0 0 0 1 2 4 3 2 2 3 3 2 3 3 3 4 4 4 4 4 5 5 5 6 6 6 6 7 7 7 6 6 6 6 5 5 5 5 5 5 5 5 5 5 5 5 6 7 7 7
5 4 3 4 9 15 18 16 9 3 0 1 1 0 1 1 2 2 1 1 2 2 2 2 1 3 5 5 4 4 3 1 0 1 1 1 1 1 2 0 0 3 4 2 1 2 3 3 3 3 2 3 4 4 5 5 5 6 6 7 7 8 8 8 8 8 7 7 6 5 6 6 5 5 5 5 4 4 4 4 5 5 6 7 9 11 13
8 8 9 12 15 15 11 7 2 1 1 1 1 1 1 1 1 1 1 1 2 2 1 2 2 4 4 3 3 2 2 1 1 1 2 1 1 1 2 1 1 4 3 1 0 2 3 3 4 3 2 2 4 4 5 6 6 6 7 8 8 7 6 6 6 6 6 6 4 4 5 6 5 6 6 6 5 4 4 4 5 6 8 9 11 13 14
10 10 9 9 8 5 2 2 1 1 1 1 1 1 2 1 1 1 1 1 1 0 1 2 2 2 2 2 1 1 1 1 1 2 2 1 1 1 2 2 3 3 2 0 2 3 3 3 4 3 2 2 3 4 4 4 5 5 5 5 4 4 3 2 3 4 6 6 6 6 6 6 6 7 8 8 6 5 5 6 6 8 10 11 11 12 12
8 6 3 2 2 1 1 2 1 1 1 1 1 1 2 3 3 2 2 2 2 2 2 3 2 1 2 2 2 1 1 1 1 2 1 1 2 2 2 2 2 2 2 2 2 3 3 3 3 2 2 2 2 2 2 3 3 3 4 4 3 1 3 4 5 5 6 7 7 7 7 6 6 7 8 8 6 5 5 6 8 10 11 11 11 12 12
5 3 2 2 2 1 1 1 1 0 0 1 0 0 2 3 3 3 3 2 2 2 3 3 1 2 2 2 1 1 1 1 1 1 0 1 3 2 1 1 1 2 3 2 2 3 3 3 2 1 1 0 1 2 2 3 3 3 3 2 3 4 5 6 6 5 5 5 6 6 6 6 6 5 6 7 6 5 5 6 8 10 10 10 10 11 12
1 1 1 2 2 1 1 1 2 2 1 1 2 3 2 1 2 4 4 3 3 3 4 5 2 1 2 2 1 1 1 1 2 1 1 2 2 1 1 2 3 2 2 2 3 3 3 1 0 1 2 2 2 2 2 3 3 2 2 3 5 5 5 5 5 5 4 5 6 6 6 6 6 6 6 6 6 6 6 7 8 9 9 8 9 11 12
1 1 1 2 1 2 1 1 1 2 2 3 3 3 1 1 2 3 4 4 4 4 4 5 3 1 2 2 1 2 2 2 2 1 1 2 2 1 2 3 2 2 2 3 3 3 2 1 2 2 3 2 2 3 3 4 4 4 4 4 5 5 5 5 5 4 4 5 5 5 5 6 7 6 6 6 6 6 7 8 8 8 8 9 11 12 13
1 1 1 1 1 2 2 2 2 3 3 3 3 2 0 1 1 3 3 3 4 4 3 2 1 2 2 2 2 1 2 2 2 1 1 2 2 1 2 3 2 2 2 2 2 2 1 2 3 3 3 2 3 3 4 4 5 5 5 5 5 5 5 5 4 4 4 5 4 4 5 6 7 7 7 7 7 8 8 9 8 7 8 10 11 13 13
0 1 0 1 0 1 2 3 2 3 3 2 2 3 2 1 3 4 2 2 4 4 2 1 3 2 2 2 2 2 2 2 1 1 2 3 3 2 2 3 3 2 2 1 1 1 2 3 3 3 3 3 3 4 4 4 4 5 4 4 5 5 4 4 4 4 5 4 4 5 7 7 7 7 7 6 6 8 10 9 7 6 7 8 9 10 11
1 1 0 1 2 2 3 3 3 4 6 5 5 4 4 4 5 5 4 3 3 3 3 3 2 2 1 2 3 3 2 1 1 2 3 3 2 2 2 3 3 1 1 1 1 2 3 3 2 3 3 3 3 4 4 4 4 4 4 4 5 6 5 4 4 4 5 5 4 5 7 6 6 7 7 6 6 8 8 7 7 7 8 8 8 9 10
1 1 1 1 2 2 2 3 2 3 4 4 4 4 4 4 5 5 5 4 4 4 4 3 2 2 3 3 2 1 1 1 3 3 3 2 2 2 3 3 2 2 1 1 1 2 2 2 2 2 3 4 4 4 4 4 4 5 5 6 7 8 7 6 5 4 5 5 4 4 5 6 6 5 5 5 5 6 7 8 10 11 10 10 9 9 9
1 1 2 2 1 1 1 2 2 2 3 4 4 4 3 4 4 6 5 4 4 4 3 2 1 3 3 2 1 1 1 2 3 3 2 2 2 2 2 2 2 2 3 1 1 2 2 2 3 3 3 4 4 4 4 4 4 5 5 7 8 8 8 7 7 6 6 5 5 5 6 7 7 6 5 5 6 6 5 7 11 13 12 10 9 8 7
Wind_Direction
324 328 328 329 333 336 338 343 346 351 356 355 349 343 329 300 287 284 273 229 244 317 301 277 285 227 248 266 258 255 259 266 265 268 276 258 237 237 231 239 240 234 259 270 262 280 278 254 246 258 263 250 235 223 208 205 199 179 184 198 190 169 148 178 234 268 267 263 274 272 226 181 187 220 197 167 174 168 163 175 175 182 191 133 128 226 260
322 325 326 328 332 334 336 341 344 349 355 354 347 340 317 304 278 283 305 283 193 182 238 267 257 250 273 276 270 266 251 253 255 247 239 229 238 252 246 243 233 224 308 283 279 345 306 261 275 280 278 267 248 231 211 204 198 187 187 180 180 201 175 157 197 242 263 274 280 284 269 169 191 228 188 178 181 157 136 117 133 190 209 160 158 221 245
319 321 324 326 329 331 334 338 342 345 350 352 348 333 291 311 259 251 306 311 180 195 245 272 280 291 305 293 285 282 259 251 254 257 256 244 240 255 260 251 235 219 264 280 291 313 270 275 303 292 287 289 277 248 220 208 198 196 196 177 166 189 186 163 183 211 219 224 229 235 229 192 219 221 185 185 176 161 154 123 137 205 226 157 161 211 250
317 318 322 324 324 329 333 336 340 342 345 350 345 319 274 325 291 266 308 325 16 298 318 35 8 333 346 321 273 255 270 282 279 275 268 249 238 242 247 245 240 224 224 264 292 290 265 281 302 292 287 287 294 292 256 221 208 207 195 173 152 151 184 181 184 203 211 207 216 220 177 167 200 206 196 194 186 176 160 125 161 188 166 173 209 197 207
315 316 320 323 323 329 333 335 338 340 342 347 341 302 223 304 280 305 338 328 343 343 7 35 15 314 311 299 262 279 296 300 295 269 263 285 285 266 238 233 230 209 190 207 240 267 304 312 298 284 273 276 296 304 296 228 220 224 202 170 145 128 189 194 188 203 213 207 215 216 161 179 201 196 195 200 195 182 165 166 187 161 141 217 247 187 175
313 315 318 319 322 328 332 334 337 339 342 346 343 272 211 270 268 347 2 316 312 342 330 339 328 296 286 267 258 278 284 295 311 283 296 316 304 275 246 250 243 218 182 167 199 272 354 322 298 285 280 316 319 315 327 340 247 252 215 180 148 146 204 200 189 208 216 213 221 222 202 213 217 201 198 195 190 186 186 193 182 155 166 219 220 177 188
311 313 314 316 319 325 330 334 336 337 342 349 352 265 270 297 292 342 360 319 291 296 293 302 308 303 305 284 251 266 288 304 316 308 317 316 295 282 287 285 278 241 179 149 137 123 74 301 288 295 313 315 318 318 316 331 9 5 223 196 162 168 224 196 183 212 221 215 224 229 228 238 243 234 217 201 190 189 193 195 178 170 192 207 178 179 202
308 310 311 313 317 322 327 333 333 335 345 356 8 346 345 346 303 323 343 311 285 277 279 297 310 308 303 269 266 320 320 319 328 319 303 290 288 300 295 287 298 284 208 159 145 159 165 225 259 279 308 304 287 284 271 284 338 344 309 223 187 201 227 191 165 204 230 216 219 227 229 235 239 242 237 219 196 193 199 194 175 179 205 193 151 176 217
305 307 309 310 315 318 322 329 331 334 348 359 4 352 351 325 291 298 313 297 284 280 292 324 316 297 288 271 342 345 326 324 327 310 273 267 277 300 302 289 289 279 230 172 147 158 170 202 234 249 263 263 252 258 269 301 329 327 322 322 262 210 218 174 142 178 235 219 212 217 215 224 243 249 246 229 192 185 204 189 168 185 193 150 120 167 233
300 303 306 307 310 312 316 325 326 331 348 1 349 329 342 332 308 304 301 280 292 309 320 330 300 269 321 352 347 329 306 312 320 306 298 311 301 304 308 302 303 292 250 175 118 309 238 227 243 250 247 251 251 251 261 269 278 282 284 294 259 181 175 169 148 178 238 222 192 189 174 186 245 249 233 214 180 157 143 97 109 173 160 143 159 208 228
299 299 301 302 304 307 312 317 318 324 344 358 345 320 332 335 322 316 304 275 290 327 334 322 294 311 346 341 330 316 307 311 317 310 307 311 305 305 309 315 325 273 255 304 329 305 278 255 260 262 243 246 252 249 253 255 244 236 240 271 284 184 179 196 169 175 231 221 158 141 154 198 235 254 218 178 149 129 116 90 348 175 144 162 204 239 217
303 300 299 298 299 302 305 308 311 316 328 341 336 318 321 327 315 300 295 279 287 320 321 285 273 306 320 316 310 308 305 302 304 298 280 276 288 297 303 318 325 271 279 314 319 302 286 268 279 289 263 244 250 256 264 276 279 262 224 230 265 231 191 207 179 159 201 185 137 144 200 221 246 304 301 122 116 114 107 87 37 19 24 121 117 303 270
301 300 299 297 294 295 298 299 302 305 312 323 325 315 315 322 312 284 282 284 279 289 300 289 285 290 294 297 301 301 296 294 295 288 272 269 281 290 295 306 298 289 298 307 310 312 314 348 7 314 295 291 311 300 281 277 283 281 264 229 225 200 173 162 104 131 156 150 158 184 208 241 330 346 358 64 97 106 94 58 19 6 354 9 76 343 306
296 297 298 296 292 289 290 291 293 297 302 309 313 312 314 313 298 278 290 281 270 281 297 293 291 291 297 306 309 304 302 306 305 292 275 270 279 287 291 289 291 296 295 293 301 342 83 45 40 355 307 325 5 328 296 278 269 273 283 296 257 177 153 121 71 113 144 135 170 191 125 55 334 341 1 343 313 129 109 89 21 347 339 317 131 92 47
292 294 295 296 294 290 288 287 287 290 293 299 304 308 311 309 293 269 268 278 287 289 264 246 285 339 334 322 315 311 315 322 322 310 287 270 271 284 289 294 299 300 291 271 294 53 117 124 98 117 271 277 223 247 309 325 297 284 270 282 310 24 148 146 123 105 112 107 110 107 89 116 248 271 290 303 301 285 148 115 104 337 349 339 84 102 93
290 290 291 294 294 290 288 287 287 286 286 291 299 304 309 314 300 270 263 273 281 272 250 274 337 339 318 305 302 302 308 323 326 319 305 304 311 305 304 306 300 299 305 322 87 59 75 144 159 153 188 220 205 210 251 166 304 302 306 349 9 18 35 111 101 68 52 94 116 140 133 194 248 288 306 319 316 301 5 89 12 332 349 354 37 61 66
289 287 288 292 292 290 288 287 287 287 285 286 295 300 304 309 304 283 274 266 255 262 279 303 319 316 291 293 308 299 291 318 327 320 314 318 314 312 321 324 310 311 346 17 39 49 65 147 170 152 198 228 192 164 189 138 30 321 326 353 11 11 4 37 66 63 66 83 96 127 139 245 295 308 311 314 318 356 77 102 262 322 340 353 59 58 36
286 285 286 287 288 289 290 289 288 286 284 285 291 295 298 305 305 286 272 272 271 263 267 289 303 290 258 280 300 293 293 318 333 317 298 293 292 310 323 324 319 333 4 22 36 45 42 251 226 188 221 258 201 160 179 150 134 256 312 343 2 356 354 32 82 75 61 74 81 54 147 252 306 315 310 312 340 53 87 153 231 312 336 357 65 75 71
283 284 285 283 284 288 290 291 289 285 282 285 288 290 293 302 305 282 259 248 258 257 273 309 306 284 262 269 280 281 294 304 295 299 304 288 303 320 314 295 295 331 347 7 22 35 24 310 288 262 253 285 285 162 159 149 151 171 107 24 7 360 354 1 56 70 62 88 83 20 293 238 316 321 315 334 39 80 118 178 243 340 358 29 56 68 76
283 284 284 284 284 285 287 289 288 286 283 281 282 285 290 298 303 286 265 259 271 275 278 275 266 262 262 262 264 273 299 296 269 259 263 263 317 337 337 336 336 327 337 10 11 7 10 320 302 323 320 285 284 266 161 145 158 161 144 114 85 121 80 358 360 51 69 74 61 47 220 278 322 331 335 15 64 141 160 109 43 13 29 54 59 55 57
281 282 283 284 283 282 285 289 288 287 283 279 281 286 290 296 304 302 293 288 278 274 280 273 263 262 264 261 259 263 268 261 255 259 265 269 299 341 346 314 319 315 318 350 344 326 344 299 278 308 304 283 290 291 251 108 141 161 147 133 134 157 159 152 281 346 76 86 88 171 214 283 318 5 76 55 62 121 124 94 74 44 41 57 61 50 41
278 279 280 281 279 279 282 284 285 285 280 277 279 279 283 291 301 311 310 293 262 256 276 285 284 279 275 272 268 261 256 254 253 249 247 272 283 259 251 285 280 233 256 310 169 20 352 333 289 299 286 285 316 333 77 117 130 221 114 115 128 208 170 138 106 19 95 123 168 208 238 286 326 70 97 87 71 69 75 90 91 66 45 58 68 61 44
277 277 277 277 278 280 279 278 282 283 278 277 275 268 276 289 299 314 317 295 263 264 271 275 281 281 276 274 273 268 262 258 254 244 228 218 263 262 235 254 270 252 334 339 176 155 71 338 296 289 277 282 349 10 15 86 189 284 45 81 100 151 140 113 100 85 71 68 49 12 344 320 17 71 84 86 80 66 56 73 76 54 38 54 73 76 64
281 278 277 278 279 281 280 279 280 280 279 280 274 269 279 287 295 313 318 290 264 287 279 268 268 265 268 283 296 294 280 266 260 247 227 208 209 292 258 226 280 342 342 255 230 154 119 209 268 310 295 285 65 56 12 324 318 355 85 68 75 129 98 84 115 134 99 67 328 341 2 347 21 68 80 81 86 90 86 84 85 64 33 21 35 65 65
283 281 279 278 280 282 281 280 280 281 283 282 276 275 281 284 289 307 312 287 280 302 300 292 263 263 282 299 301 295 288 287 285 256 222 208 207 227 251 266 286 296 262 248 252 86 88 144 40 3 317 304 39 65 243 253 298 351 97 104 158 169 115 108 128 124 103 132 188 17 44 21 11 46 78 83 87 91 88 91 98 85 58 30 26 41 48
282 282 280 279 281 284 282 280 281 284 285 283 280 278 278 279 284 288 281 278 283 269 272 288 281 288 310 313 299 295 300 304 299 254 220 217 219 224 236 271 295 299 318 269 181 99 98 81 65 36 305 305 316 283 227 221 285 330 36 296 258 218 114 123 129 106 91 119 152 149 83 48 25 28 43 56 78 84 76 68 62 56 51 45 39 37 43
278 278 279 278 279 281 283 284 285 286 288 286 280 277 276 278 281 277 264 257 259 267 266 264 285 308 316 304 295 300 308 307 297 267 231 225 224 224 229 248 276 301 343 341 303 88 94 75 86 187 224 279 299 282 242 196 265 45 21 329 320 49 58 110 124 115 107 130 162 157 122 87 51 38 44 52 77 85 80 73 65 56 49 48 45 39 40
278 278 278 278 278 280 284 287 288 290 292 289 285 286 285 280 275 270 264 254 238 253 295 281 288 306 308 296 296 303 302 295 287 262 233 226 224 222 220 220 234 264 307 286 289 93 124 166 198 198 208 248 298 294 305 26 48 47 352 332 336 87 135 136 117 113 127 164 159 134 117 107 90 61 62 64 76 82 83 84 84 82 75 67 65 54 42
278 278 277 278 281 283 287 290 293 293 290 293 300 301 295 286 273 258 252 247 236 240 285 292 281 285 293 296 302 304 301 294 276 238 223 225 223 215 210 211 211 203 175 170 214 154 176 199 212 218 203 180 183 277 342 41 46 352 328 335 347 17 89 116 116 109 108 129 137 118 108 105 98 78 66 53 65 84 88 85 85 85 79 70 70 66 58
279 278 280 284 284 284 289 293 294 291 290 302 317 312 297 318 43 155 166 191 306 280 264 287 288 281 284 291 293 292 292 289 260 224 212 212 219 218 209 205 203 174 118 80 222 202 212 239 242 254 247 204 178 152 81 97 102 347 343 358 15 30 47 81 102 103 105 113 111 99 99 105 109 91 66 43 36 66 80 79 79 83 84 81 80 80 79
281 278 281 285 283 283 289 290 287 288 291 301 325 318 223 22 108 144 153 340 339 338 246 259 281 291 288 270 254 265 275 267 225 207 203 204 221 223 197 186 192 161 147 180 249 219 207 238 249 274 293 258 147 113 104 120 112 25 1 12 36 54 54 48 54 79 103 114 90 74 66 60 70 69 50 31 22 45 67 70 68 77 86 88 84 83 80
281 282 285 287 285 285 289 289 288 288 284 278 271 262 266 276 250 199 255 308 321 331 231 270 285 295 289 272 258 259 255 226 181 182 219 214 213 209 187 183 193 189 177 171 286 270 223 216 231 278 297 320 83 79 63 72 75 23 359 25 49 61 66 62 51 52 57 56 68 70 57 39 40 52 47 32 27 44 61 64 67 82 89 85 75 69 62
286 287 286 285 287 287 288 291 292 286 282 280 276 270 267 267 267 269 284 295 297 268 219 270 293 277 266 285 287 263 221 176 153 162 223 225 191 164 204 201 165 175 203 195 200 244 243 237 246 293 312 358 68 80 58 40 23 336 341 29 47 58 70 70 61 53 47 39 55 83 87 72 63 68 65 53 44 42 51 57 59 68 65 55 47 41 37
289 287 284 284 287 288 289 293 291 286 285 283 278 273 268 266 276 283 279 268 257 252 246 231 279 277 276 314 315 281 155 126 142 167 223 256 182 145 176 220 106 163 213 204 191 276 289 284 293 20 347 355 40 71 56 20 356 338 359 20 11 32 64 64 58 55 54 51 60 78 104 125 120 76 50 46 41 37 41 43 42 44 42 36 29 21 18
291 289 289 292 294 293 292 289 282 280 280 269 269 279 289 310 321 312 269 219 181 192 264 225 222 272 297 333 315 299 332 27 174 181 203 239 187 154 152 117 82 239 214 158 73 352 318 315 52 45 356 351 37 52 30 3 353 359 26 27 12 22 53 56 55 60 62 65 71 71 72 80 74 56 44 41 35 33 40 40 37 38 36 25 14 9 11
297 298 300 302 300 296 294 284 257 236 238 264 289 310 321 317 321 316 255 221 217 225 263 285 254 254 289 311 288 303 335 341 239 194 185 188 194 187 127 109 137 249 217 81 55 26 1 357 58 50 11 26 58 36 355 3 12 16 29 28 17 26 41 37 49 100 94 73 67 61 53 56 59 52 43 39 30 29 36 33 27 27 25 10 358 357 359
302 305 308 309 303 293 286 251 206 222 285 305 314 317 304 288 298 296 231 219 224 218 220 320 281 252 265 278 267 292 333 322 276 133 145 183 190 183 122 115 198 231 66 59 63 64 35 23 68 73 54 56 65 30 2 19 25 19 27 27 15 24 33 19 13 118 92 55 46 42 40 44 44 35 28 25 18 20 28 26 16 11 4 347 339 344 341
310 310 308 306 304 292 242 212 252 304 313 313 314 312 302 256 192 227 214 203 208 201 180 207 255 255 271 274 267 275 296 299 342 65 119 206 207 164 105 129 188 155 82 77 123 129 68 30 53 75 68 54 49 31 16 18 18 13 20 21 12 19 27 21 30 54 58 41 25 19 20 24 23 17 14 11 7 8 13 7 350 347 350 340 331 330 327
319 318 306 289 263 251 274 298 313 318 316 307 272 252 289 99 137 235 232 186 186 201 190 199 228 232 226 248 270 277 259 298 16 23 3 319 10 353 226 157 214 97 88 94 181 127 78 55 42 64 63 37 18 12 5 6 14 17 15 14 14 16 20 25 37 51 64 66 39 22 22 18 8 0 358 357 356 356 357 352 348 347 343 332 327 326 324
338 330 308 257 272 293 303 312 320 322 320 325 115 96 183 185 193 202 199 202 228 221 196 189 206 221 214 219 255 278 265 107 42 26 355 322 283 166 107 160 153 89 83 76 24 41 84 89 56 46 48 16 349 351 359 7 14 13 8 10 15 16 22 32 36 40 51 54 39 24 21 17 9 1 353 344 340 341 341 341 340 333 324 321 321 317 312
354 342 314 299 302 304 308 315 321 317 192 49 14 294 209 229 240 223 189 212 254 239 186 160 196 245 224 202 210 251 276 316 76 127 86 356 333 71 81 353 29 75 85 104 82 60 75 83 69 56 35 353 344 350 360 6 8 7 4 5 9 12 17 23 24 25 32 36 26 12 9 8 5 1 350 339 333 323 311 307 310 309 308 309 309 308 310
326 316 306 303 302 301 305 315 335 61 49 31 18 281 250 237 246 257 207 211 232 228 173 160 204 240 236 192 184 227 277 328 5 80 62 357 319 82 91 329 36 74 99 183 141 61 65 80 81 74 44 3 358 357 1 2 1 357 355 355 357 356 356 1 7 13 22 28 20 3 359 357 352 348 341 333 324 312 303 299 297 301 306 313 315 315 316
317 311 307 305 303 301 308 315 321 82 65 48 25 333 319 308 294 284 272 268 282 292 186 210 227 261 321 339 313 273 283 322 31 57 50 337 321 40 53 26 42 72 91 106 56 61 67 75 81 89 95 52 25 7 354 347 341 334 328 319 309 309 324 358 25 21 20 22 15 1 355 350 345 342 340 335 326 315 313 314 312 314 321 328 329 326 325
324 317 316 314 304 320 348 316 303 88 41 3 67 59 347 338 332 319 320 331 334 327 278 259 251 56 21 326 319 360 342 338 50 54 17 329 356 33 45 26 14 41 52 54 65 75 76 75 80 94 102 78 41 351 320 313 302 277 264 263 268 312 12 28 33 28 22 18 13 7 3 356 346 342 344 345 342 332 322 322 326 331 336 338 334 332 334
337 339 19 8 329 334 33 3 341 14 352 305 219 348 339 331 311 302 313 317 300 298 308 300 291 88 48 324 327 37 342 336 45 60 343 9 29 29 32 47 37 39 53 61 71 78 79 78 72 65 76 242 279 290 299 296 280 257 255 297 1 20 27 28 28 25 17 7 2 360 357 349 340 335 337 341 344 343 330 324 328 334 338 338 332 330 335
334 333 57 42 345 325 21 13 353 356 360 327 311 318 338 351 272 274 287 304 309 320 327 320 320 60 49 354 344 14 353 21 57 65 88 86 71 20 23 61 54 46 65 80 76 77 87 107 221 281 273 271 289 311 315 309 305 313 349 12 10 9 18 27 26 20 11 1 355 350 345 340 335 328 326 332 342 343 335 331 336 341 340 335 329 329 336
339 320 54 69 3 327 350 16 336 298 286 290 301 308 319 153 231 260 272 289 302 304 301 298 301 349 52 40 25 355 348 32 55 15 35 89 95 359 32 59 50 20 52 78 83 90 116 197 243 269 279 291 326 344 342 343 344 352 6 9 1 2 13 18 15 9 4 360 355 344 337 340 339 331 323 324 328 334 337 340 344 348 344 337 335 338 342
359 353 50 82 20 335 344 339 306 283 269 262 275 301 79 152 249 266 250 244 261 276 287 310 2 21 8 20 48 19 350 23 40 350 354 81 87 42 43 62 61 39 47 69 99 126 183 227 242 262 283 313 353 356 346 341 339 343 352 354 352 356 360 357 352 348 349 352 351 336 328 333 336 329 319 312 313 325 338 342 341 343 344 339 338 341 343
72 36 72 134 119 304 290 282 294 323 335 332 338 360 25 5 308 306 292 252 260 276 290 52 91 77 344 349 43 37 355 5 36 2 6 42 57 55 62 74 74 66 58 58 147 189 229 250 269 300 316 334 352 347 329 315 315 324 332 332 329 333 334 328 327 333 337 344 344 330 322 321 319 315 314 310 309 319 331 337 337 341 344 339 332 331 331
59 64 274 332 11 347 312 311 344 357 357 1 2 357 357 351 337 335 336 323 314 336 9 27 51 60 6 13 44 33 346 341 49 45 33 38 46 62 80 79 80 94 129 171 192 216 245 263 290 321 325 328 329 319 310 309 316 321 322 320 320 322 318 312 317 332 344 354 351 334 321 312 302 295 293 291 298 314 332 350 359 356 350 343 337 331 326
19 37 304 332 17 2 314 313 323 319 328 340 336 322 332 351 343 326 321 329 359 30 29 8 4 35 34 34 42 23 324 9 45 45 39 34 26 41 73 86 100 123 126 121 196 230 249 262 271 295 311 316 311 302 303 310 312 313 320 328 330 328 328 329 331 337 345 352 356 342 321 310 303 296 293 304 328 348 1 6 6 2 357 350 346 342 335
25 3 317 307 296 262 289 306 290 279 295 307 299 299 334 355 328 311 325 3 34 34 10 350 44 59 47 37 33 14 22 44 45 33 29 32 28 41 81 104 127 138 137 157 246 258 257 256 257 265 280 290 295 302 310 314 312 314 323 330 329 328 329 334 338 339 337 337 340 339 331 325 329 338 347 359 14 20 5 347 348 353 353 350 348 348 346